FW5359 Weather Reports


Display with metric or nautical units.
time (UTC)temp
F
wind
direction
speed
MPH
gust
MPH
rain 1hr
in
rain 24hr
in
rain mn
in
humidity
%
barometer
mb
20260510192721 86 167 4.0 10.0 0.00 0.00 0.00 62 1014.0
20260510192222 86 168 3.0 9.0 0.00 0.00 0.00 63 1014.1
20260510191722 86 117 3.0 10.0 0.00 0.00 0.00 63 1014.1
20260510191222 86 144 4.0 10.0 0.00 0.00 0.00 64 1014.1
20260510190946 86 172 3.0 11.0 0.00 0.00 0.00 65 1014.2
20260510185703 86 126 3.0 9.0 0.00 0.00 0.00 64 1014.4
20260510184651 85 141 3.0 9.0 0.00 0.00 0.00 67 1014.4
20260510184145 85 153 4.0 9.0 0.00 0.00 0.00 66 1014.5
20260510183639 85 169 4.0 13.0 0.00 0.00 0.00 67 1014.5
20260510183133 85 109 4.0 13.0 0.00 0.00 0.00 67 1014.7
20260510182628 85 119 4.0 10.0 0.00 0.00 0.00 67 1014.8
20260510182121 84 129 4.0 10.0 0.00 0.00 0.00 69 1014.9
20260510181614 83 99 4.0 10.0 0.00 0.00 0.00 69 1015.0
20260510181109 84 94 3.0 9.0 0.00 0.00 0.00 69 1014.9
20260510180604 84 84 3.0 9.0 0.00 0.00 0.00 69 1015.0
20260510180327 84 108 4.0 12.0 0.00 0.00 0.00 67 1015.2
20260510175551 84 169 4.0 12.0 0.00 0.00 0.00 67 1015.2
20260510175045 84 134 4.0 11.0 0.00 0.00 0.00 68 1015.2
20260510174539 84 84 4.0 10.0 0.00 0.00 0.00 68 1015.3
20260510174032 85 88 4.0 10.0 0.00 0.00 0.00 67 1015.3
20260510173527 85 57 3.0 11.0 0.00 0.00 0.00 67 1015.3
20260510173021 85 156 3.0 11.0 0.00 0.00 0.00 66 1015.3
20260510172746 84 137 4.0 11.0 0.00 0.00 0.00 68 1015.2
20260510172009 84 112 4.0 9.0 0.00 0.00 0.00 68 1015.2
20260510171503 84 165 3.0 9.0 0.00 0.00 0.00 67 1015.0
20260510171228 84 120 3.0 9.0 0.00 0.00 0.00 67 1015.2
20260510170451 85 88 3.0 9.0 0.00 0.00 0.00 66 1015.2
20260510170216 85 138 3.0 9.0 0.00 0.00 0.00 67 1015.2
20260510165439 85 119 3.0 8.0 0.00 0.00 0.00 67 1015.2
20260510164933 84 167 3.0 9.0 0.00 0.00 0.00 68 1015.0
20260510164658 84 41 3.0 9.0 0.00 0.00 0.00 69 1015.0
20260510164153 84 115 3.0 7.0 0.00 0.00 0.00 69 1014.9
20260510163414 83 115 3.0 7.0 0.00 0.00 0.00 69 1015.0
20260510162910 83 163 3.0 9.0 0.00 0.00 0.00 68 1015.0
20260510162634 83 146 3.0 9.0 0.00 0.00 0.00 69 1014.9
20260510161857 83 136 3.0 10.0 0.00 0.00 0.00 69 1014.8
20260510161621 83 123 3.0 10.0 0.00 0.00 0.00 70 1014.8
20260510161116 83 150 2.0 7.0 0.00 0.00 0.00 70 1014.7
20260510160339 83 150 3.0 7.0 0.00 0.00 0.00 70 1014.7
20260510155833 82 146 3.0 8.0 0.00 0.00 0.00 70 1014.6
20260510155327 82 160 3.0 8.0 0.00 0.00 0.00 70 1014.6
20260510154821 82 115 3.0 7.0 0.00 0.00 0.00 72 1014.5
20260510154040 82 157 2.0 7.0 0.00 0.00 0.00 71 1014.4
20260510153303 81 157 2.0 7.0 0.00 0.00 0.00 72 1014.4
20260510152757 82 153 2.0 7.0 0.00 0.00 0.00 72 1014.4
20260510152251 82 282 3.0 8.0 0.00 0.00 0.00 70 1014.4
20260510151745 82 169 2.0 8.0 0.00 0.00 0.00 72 1014.4
20260510151239 81 236 1.0 4.0 0.00 0.00 0.00 73 1014.3
20260510150732 81 236 1.0 4.0 0.00 0.00 0.00 74 1014.2
20260510150227 80 236 1.0 4.0 0.00 0.00 0.00 75 1014.1
20260510145958 79 236 2.0 4.0 0.00 0.00 0.00 76 1014.2
20260510144730 78 232 2.0 8.0 0.00 0.00 0.00 76 1014.2
20260510144228 78 232 2.0 5.0 0.00 0.00 0.00 76 1014.2
20260510143725 78 219 2.0 4.0 0.00 0.00 0.00 78 1014.1
20260510143455 77 224 2.0 8.0 0.00 0.00 0.00 78 1014.2
20260510142725 77 269 3.0 10.0 0.00 0.00 0.00 78 1014.0
20260510142225 77 248 2.0 10.0 0.00 0.00 0.00 78 1014.0
20260510141723 77 259 2.0 7.0 0.00 0.00 0.00 79 1013.9
20260510141223 76 205 2.0 5.0 0.00 0.00 0.00 80 1013.9
20260510140723 76 232 2.0 9.0 0.00 0.00 0.00 81 1013.8
20260510140223 76 228 2.0 9.0 0.00 0.00 0.00 81 1013.9
20260510135725 76 215 2.0 6.0 0.00 0.00 0.00 82 1013.8
20260510135226 75 211 1.0 6.0 0.00 0.00 0.00 82 1013.9
20260510134723 75 241 1.0 5.0 0.00 0.00 0.00 82 1013.8
20260510134222 74 236 1.0 5.0 0.00 0.00 0.00 82 1013.8
20260510133719 74 234 1.0 4.0 0.00 0.00 0.00 83 1013.7
20260510133219 73 234 1.0 5.0 0.00 0.00 0.00 83 1013.7
20260510132719 73 239 1.0 5.0 0.00 0.00 0.00 84 1013.7
20260510132218 73 236 1.0 2.0 0.00 0.00 0.00 85 1013.6
20260510131719 72 236 1.0 2.0 0.00 0.00 0.00 85 1013.6
20260510131219 72 236 0.0 2.0 0.00 0.00 0.00 85 1013.5
20260510130718 71 236 0.0 1.0 0.00 0.00 0.00 86 1013.4
20260510130218 71 236 0.0 0.0 0.00 0.00 0.00 86 1013.4
20260510125445 70 236 0.0 0.0 0.00 0.00 0.00 86 1013.4
20260510124945 69 236 0.0 0.0 0.00 0.00 0.00 87 1013.3
20260510124214 69 236 0.0 0.0 0.00 0.00 0.00 87 1013.2
20260510123715 68 236 0.0 0.0 0.00 0.00 0.00 87 1013.2
20260510123446 68 236 0.0 0.0 0.00 0.00 0.00 87 1013.1
20260510122715 67 236 0.0 0.0 0.00 0.00 0.00 87 1013.1
20260510122215 67 236 0.0 0.0 0.00 0.00 0.00 87 1013.1
20260510121715 67 236 0.0 0.0 0.00 0.00 0.00 88 1013.1
20260510121215 67 236 0.0 1.0 0.00 0.00 0.00 88 1013.1
20260510120707 67 236 0.0 1.0 0.00 0.00 0.00 88 1013.1
20260510120202 67 236 0.0 0.0 0.00 0.00 0.00 88 1013.1
20260510115656 67 236 0.0 0.0 0.00 0.00 0.00 88 1013.2
20260510115150 67 236 0.0 0.0 0.00 0.00 0.00 87 1013.1
20260510114644 67 236 0.0 0.0 0.00 0.00 0.00 87 1013.1
20260510114139 67 236 0.0 0.0 0.00 0.00 0.00 87 1013.1
20260510113902 67 236 0.0 0.0 0.00 0.00 0.00 87 1013.1
20260510113126 67 236 0.0 0.0 0.00 0.00 0.00 87 1013.1
20260510112620 67 236 0.0 0.0 0.00 0.00 0.00 87 1013.1
20260510112114 67 236 0.0 0.0 0.00 0.00 0.00 87 1013.1
20260510111608 67 236 0.0 0.0 0.00 0.00 0.00 87 1013.0
20260510111102 67 236 0.0 0.0 0.00 0.00 0.00 87 1013.1
20260510110555 67 236 0.0 0.0 0.00 0.00 0.00 87 1013.0
20260510105542 67 236 0.0 0.0 0.00 0.00 0.00 85 1013.1
20260510104530 67 236 0.0 1.0 0.00 0.00 0.00 86 1012.9
20260510104024 67 236 0.0 1.0 0.00 0.00 0.00 86 1013.0
20260510103517 67 236 0.0 2.0 0.00 0.00 0.00 86 1013.1
20260510103012 68 236 0.0 2.0 0.00 0.00 0.00 86 1013.1
20260510102506 68 236 0.0 0.0 0.00 0.00 0.00 86 1013.0
20260510102000 68 236 0.0 0.0 0.00 0.00 0.00 86 1013.0
20260510101726 68 236 0.0 0.0 0.00 0.00 0.00 86 1013.0
20260510100948 68 236 0.0 0.0 0.00 0.00 0.00 85 1013.1
20260510100442 68 236 0.0 0.0 0.00 0.00 0.00 85 1013.1
20260510095936 68 236 0.0 0.0 0.00 0.00 0.00 85 1013.0
20260510095430 68 236 0.0 0.0 0.00 0.00 0.00 84 1013.0
20260510094924 69 236 0.0 0.0 0.00 0.00 0.00 84 1013.0
20260510094417 69 236 0.0 0.0 0.00 0.00 0.00 83 1013.0
20260510093912 69 236 0.0 0.0 0.00 0.00 0.00 83 1013.1
20260510093406 69 236 0.0 0.0 0.00 0.00 0.00 83 1013.1
20260510092900 69 236 0.0 0.0 0.00 0.00 0.00 83 1012.9
20260510092353 70 236 0.0 0.0 0.00 0.00 0.00 83 1012.9
20260510091848 70 236 0.0 0.0 0.00 0.00 0.00 83 1012.9
20260510091343 70 236 0.0 0.0 0.00 0.00 0.00 83 1012.8
20260510090836 70 236 0.0 0.0 0.00 0.00 0.00 83 1012.8
20260510090330 70 236 0.0 0.0 0.00 0.00 0.00 82 1012.7
20260510085824 70 236 0.0 1.0 0.00 0.00 0.00 82 1012.7
20260510085318 70 236 0.0 1.0 0.00 0.00 0.00 82 1012.6
20260510084811 71 236 0.0 1.0 0.00 0.00 0.00 82 1012.5
20260510084306 71 236 0.0 1.0 0.00 0.00 0.00 81 1012.5
20260510083800 71 236 0.0 1.0 0.00 0.00 0.00 81 1012.5
20260510083254 71 236 0.0 1.0 0.00 0.00 0.00 80 1012.5
20260510082748 71 236 0.0 0.0 0.00 0.00 0.00 80 1012.6
20260510082242 72 236 0.0 0.0 0.00 0.00 0.00 80 1012.7
20260510081736 72 236 0.0 0.0 0.00 0.00 0.00 79 1012.7
20260510081230 72 236 0.0 0.0 0.00 0.00 0.00 79 1012.7
20260510080724 73 236 0.0 1.0 0.00 0.00 0.00 78 1012.6
20260510080218 73 236 0.0 1.0 0.00 0.00 0.00 78 1012.7
20260510075712 73 236 0.0 1.0 0.00 0.00 0.00 78 1012.6
20260510075444 73 236 0.0 1.0 0.00 0.00 0.00 78 1012.5
20260510074712 73 236 0.0 1.0 0.00 0.00 0.00 77 1012.5
20260510074443 73 236 0.0 1.0 0.00 0.00 0.00 77 1012.5
20260510073709 73 236 0.0 3.0 0.00 0.00 0.00 77 1012.5
20260510073208 74 236 0.0 3.0 0.00 0.00 0.00 77 1012.5
20260510072706 74 236 0.0 2.0 0.00 0.00 0.00 77 1012.7
20260510072209 74 236 0.0 2.0 0.00 0.00 0.00 77 1012.7
20260510071706 74 236 1.0 3.0 0.00 0.00 0.00 76 1012.7
20260510071436 74 237 1.0 4.0 0.00 0.00 0.00 76 1012.8
20260510070703 74 237 1.0 4.0 0.00 0.00 0.00 76 1012.7
20260510070204 74 237 0.0 3.0 0.00 0.00 0.00 76 1012.7
20260510065703 75 238 1.0 3.0 0.00 0.00 0.00 76 1012.8
20260510065436 75 238 1.0 3.0 0.00 0.00 0.00 75 1012.7
20260510064704 75 242 1.0 4.0 0.00 0.00 0.00 75 1012.8
20260510064204 75 243 1.0 4.0 0.00 0.00 0.00 75 1012.8
20260510063704 75 244 1.0 11.0 0.00 0.00 0.00 75 1012.8
20260510063204 75 246 1.0 11.0 0.00 0.00 0.00 76 1012.8
20260510062932 75 188 1.0 5.0 0.00 0.00 0.00 76 1012.8
20260510062433 75 183 1.0 3.0 0.00 0.00 0.00 76 1012.8
20260510061701 75 182 0.0 5.0 0.00 0.00 0.00 76 1012.8
20260510061204 75 182 0.0 5.0 0.00 0.00 0.00 76 1012.9
20260510060934 75 185 0.0 0.0 0.00 0.00 0.00 76 1012.9
20260510060202 76 185 0.0 0.0 0.00 0.00 0.00 76 1012.9
20260510055704 76 185 0.0 0.0 0.00 0.00 0.00 76 1013.0
20260510055201 76 185 0.0 0.0 0.00 0.00 0.00 76 1012.8
20260510054702 76 185 0.0 0.0 0.00 0.00 0.00 75 1012.8
20260510054202 76 185 0.0 0.0 0.00 0.00 0.00 75 1012.7
20260510053932 76 185 0.0 0.0 0.00 0.00 0.00 75 1012.7
20260510053202 76 185 0.0 0.0 0.00 0.00 0.00 75 1012.6
20260510052702 76 185 0.0 0.0 0.00 0.00 0.00 75 1012.6
20260510052202 76 185 0.0 0.0 0.00 0.00 0.00 75 1012.5
20260510051702 77 186 0.0 0.0 0.00 0.00 0.00 74 1012.5
20260510051208 77 186 0.0 0.0 0.00 0.00 0.00 73 1012.4
20260510050704 77 186 0.0 0.0 0.00 0.00 0.00 72 1012.4
20260510050429 78 186 0.0 3.0 0.00 0.00 0.00 72 1012.2
20260510045658 78 186 1.0 5.0 0.00 0.00 0.00 72 1012.1
20260510045152 78 186 1.0 5.0 0.00 0.00 0.00 71 1012.1
20260510044645 78 186 1.0 4.0 0.00 0.00 0.00 71 1012.1
20260510044139 78 188 1.0 6.0 0.00 0.00 0.00 71 1012.1
20260510043634 78 188 1.0 6.0 0.00 0.00 0.00 71 1012.1
20260510043358 78 183 0.0 0.0 0.00 0.00 0.00 71 1012.0
20260510042853 78 183 0.0 0.0 0.00 0.00 0.00 71 1011.9
20260510042115 78 183 0.0 0.0 0.00 0.00 0.00 71 1011.9
20260510041610 78 183 0.0 0.0 0.00 0.00 0.00 71 1011.9
20260510041104 79 183 0.0 0.0 0.00 0.00 0.00 70 1011.9
20260510040828 79 183 0.0 0.0 0.00 0.00 0.00 70 1011.9
20260510040052 79 183 0.0 0.0 0.00 0.00 0.00 70 1011.9
20260510035546 79 183 0.0 0.0 0.00 0.00 0.00 70 1011.8
20260510035040 79 183 0.0 0.0 0.00 0.00 0.00 70 1011.8
20260510034804 79 183 0.0 0.0 0.00 0.00 0.00 69 1011.8
20260510034027 79 183 0.0 0.0 0.00 0.00 0.00 69 1011.7
20260510033521 80 183 0.0 0.0 0.00 0.00 0.00 69 1011.8
20260510032509 80 183 0.0 0.0 0.00 0.00 0.00 68 1011.7
20260510032004 80 183 0.0 0.0 0.00 0.00 0.00 68 1011.7
20260510031458 80 183 0.0 0.0 0.00 0.00 0.00 68 1011.6
20260510030951 80 183 0.0 0.0 0.00 0.00 0.00 67 1011.6
20260510030451 80 183 0.0 0.0 0.00 0.00 0.00 67 1011.6
20260510025951 80 183 0.0 0.0 0.00 0.00 0.00 67 1011.5
20260510025450 81 183 0.0 0.0 0.00 0.00 0.00 67 1011.5
20260510024951 81 183 0.0 0.0 0.00 0.00 0.00 67 1011.4
20260510024451 81 183 0.0 2.0 0.00 0.00 0.00 67 1011.4
20260510023951 81 183 1.0 3.0 0.00 0.00 0.00 67 1011.3
20260510023451 81 183 0.0 3.0 0.00 0.00 0.00 67 1011.2
20260510023221 81 183 0.0 2.0 0.00 0.00 0.00 67 1011.2
20260510022451 81 183 0.0 2.0 0.00 0.00 0.00 67 1011.1
20260510021951 82 183 1.0 4.0 0.00 0.00 0.00 66 1011.0
20260510021451 82 182 1.0 4.0 0.00 0.00 0.00 66 1011.0
20260510021223 82 182 1.0 4.0 0.00 0.00 0.00 66 1010.9
20260510020452 83 183 1.0 3.0 0.00 0.00 0.00 65 1010.9
20260510015952 83 183 1.0 5.0 0.00 0.00 0.00 65 1010.8
20260510015451 83 183 1.0 5.0 0.00 0.00 0.00 64 1010.7
20260510014948 83 184 1.0 4.0 0.00 0.00 0.00 64 1010.6
20260510014448 83 184 1.0 3.0 0.00 0.00 0.00 64 1010.5
20260510013949 83 184 1.0 3.0 0.00 0.00 0.00 63 1010.4
20260510013442 84 185 0.0 3.0 0.00 0.00 0.00 63 1010.3
20260510013211 84 185 1.0 3.0 0.00 0.00 0.00 63 1010.2
20260510012440 84 185 1.0 3.0 0.00 0.00 0.00 63 1010.1
20260510011941 85 185 1.0 2.0 0.00 0.00 0.00 62 1010.0
20260510011712 85 185 1.0 4.0 0.00 0.00 0.00 62 1010.0
20260510010940 85 185 1.0 4.0 0.00 0.00 0.00 62 1009.9
20260510010441 85 184 2.0 5.0 0.00 0.00 0.00 62 1009.8
20260510005940 86 185 2.0 5.0 0.00 0.00 0.00 61 1009.8
20260510005438 86 198 1.0 4.0 0.00 0.00 0.00 61 1009.7
20260510004939 86 203 1.0 4.0 0.00 0.00 0.00 60 1009.7
20260510004436 87 205 1.0 4.0 0.00 0.00 0.00 60 1009.6
20260510003936 87 205 1.0 4.0 0.00 0.00 0.00 59 1009.5
20260510003436 87 205 1.0 4.0 0.00 0.00 0.00 58 1009.3
20260510003208 88 206 1.0 4.0 0.00 0.00 0.00 58 1009.1
20260510002434 88 209 1.0 5.0 0.00 0.00 0.00 57 1009.0
20260510001934 89 205 2.0 6.0 0.00 0.00 0.00 56 1008.9
20260510001436 89 180 2.0 6.0 0.00 0.00 0.00 55 1008.9
20260510000930 89 164 2.0 6.0 0.00 0.00 0.00 55 1009.1
20260510000425 89 164 2.0 6.0 0.00 0.00 0.00 54 1009.2
20260509235918 90 167 1.0 6.0 0.00 0.00 0.00 54 1009.3
20260509234906 90 166 2.0 6.0 0.00 0.00 0.00 54 1009.2
20260509234632 89 166 2.0 6.0 0.00 0.00 0.00 54 1009.1
20260509233855 90 167 2.0 7.0 0.00 0.00 0.00 54 1009.2
20260509233626 90 107 2.0 7.0 0.00 0.00 0.00 55 1009.2
20260509233114 90 156 2.0 6.0 0.00 0.00 0.00 54 1009.3
20260509232608 90 165 2.0 6.0 0.00 0.00 0.00 54 1009.3
20260509231830 91 217 2.0 6.0 0.00 0.00 0.00 53 1009.3
20260509231325 91 173 1.0 6.0 0.00 0.00 0.00 53 1009.3
20260509230820 92 218 1.0 5.0 0.00 0.00 0.00 54 1009.3
20260509230313 92 236 1.0 3.0 0.00 0.00 0.00 54 1009.3
20260509225807 92 236 2.0 5.0 0.00 0.00 0.00 53 1009.2
20260509225301 91 235 1.0 5.0 0.00 0.00 0.00 53 1009.1
20260509225025 91 219 1.0 4.0 0.00 0.00 0.00 54 1009.1
20260509224519 91 220 2.0 5.0 0.00 0.00 0.00 54 1009.2
20260509223742 91 229 2.0 5.0 0.00 0.00 0.00 55 1009.2
20260509223236 92 252 1.0 4.0 0.00 0.00 0.00 53 1009.1
20260509222731 92 252 1.0 4.0 0.00 0.00 0.00 53 1009.0
20260509222225 91 251 1.0 6.0 0.00 0.00 0.00 54 1009.1
20260509221719 91 256 2.0 6.0 0.00 0.00 0.00 54 1009.3
20260509221213 91 133 2.0 7.0 0.00 0.00 0.00 55 1009.2
20260509220707 91 234 2.0 7.0 0.00 0.00 0.00 55 1009.2
20260509215655 91 221 1.0 5.0 0.00 0.00 0.00 55 1009.3
20260509215149 91 246 1.0 6.0 0.00 0.00 0.00 54 1009.2
20260509214649 91 259 1.0 6.0 0.00 0.00 0.00 56 1009.3
20260509214146 90 178 1.0 4.0 0.00 0.00 0.00 56 1009.2
20260509213646 90 225 1.0 5.0 0.00 0.00 0.00 54 1009.3
20260509213144 91 225 1.0 5.0 0.00 0.00 0.00 54 1009.3
20260509212642 92 211 2.0 8.0 0.00 0.00 0.00 54 1009.5
20260509212415 91 191 2.0 8.0 0.00 0.00 0.00 55 1009.5
20260509211644 91 169 2.0 8.0 0.00 0.00 0.00 55 1009.5
20260509211414 91 235 1.0 7.0 0.00 0.00 0.00 55 1009.6
20260509210642 90 229 2.0 7.0 0.00 0.00 0.00 55 1009.7
20260509210142 90 224 2.0 7.0 0.00 0.00 0.00 55 1009.8
20260509205642 91 256 2.0 4.0 0.00 0.00 0.00 57 1009.9
20260509205142 91 253 2.0 4.0 0.00 0.00 0.00 56 1009.9
20260509204642 91 254 2.0 5.0 0.00 0.00 0.00 57 1010.0
20260509204140 91 296 1.0 8.0 0.00 0.00 0.00 57 1010.0
20260509203637 90 237 2.0 8.0 0.00 0.00 0.00 58 1010.2
20260509203138 90 250 2.0 7.0 0.00 0.00 0.00 58 1010.2
20260509202908 89 219 2.0 8.0 0.00 0.00 0.00 58 1010.5
20260509202138 89 196 1.0 8.0 0.00 0.00 0.00 61 1010.5
20260509201632 88 288 1.0 7.0 0.00 0.00 0.00 63 1010.6
20260509201126 87 290 2.0 7.0 0.00 0.00 0.00 62 1010.7
20260509200620 88 196 2.0 8.0 0.00 0.00 0.00 61 1010.8
20260509200113 88 210 2.0 8.0 0.00 0.00 0.00 61 1010.9
20260509195607 89 221 2.0 6.0 0.00 0.00 0.00 60 1011.0
20260509195107 89 171 2.0 9.0 0.00 0.00 0.00 61 1011.1
20260509194838 89 163 2.0 9.0 0.00 0.00 0.00 60 1011.1
20260509194107 89 171 2.0 7.0 0.00 0.00 0.00 62 1011.2
20260509193605 88 213 2.0 7.0 0.00 0.00 0.00 64 1011.2
20260509193106 87 245 2.0 7.0 0.00 0.00 0.00 63 1011.4